This is the latest recevied weather packets stored in our database for station/object KD8JAM. If no packets are shown the sender has not sent any weather packets the latest 10 day(s).
| Time | Temp. | Humidity | Pressure | Rain* | Wind** | Luminosity | Snow |
|---|---|---|---|---|---|---|---|
| 1777764415 | 7.78° C | 51% | 1013.2 hPa | 0 mm | - | 52 W/m² | - |
| 1777764113 | 7.78° C | 50% | 1012.8 hPa | 0 mm | - | 77 W/m² | - |
| 1777763809 | 8.33° C | 51% | 1013 hPa | 0 mm | - | 72 W/m² | - |
| 1777763507 | 8.33° C | 51% | 1013 hPa | 0 mm | - | 139 W/m² | - |
| 1777763206 | 8.33° C | 51% | 1013.3 hPa | 0 mm | - | 186 W/m² | - |
| 1777762904 | 8.33° C | 50% | 1013 hPa | 0 mm | - | 171 W/m² | - |
| 1777762599 | 8.33° C | 50% | 1013.2 hPa | 0 mm | - | 124 W/m² | - |
| 1777762297 | 8.89° C | 50% | 1013 hPa | 0 mm | - | 104 W/m² | - |
| 1777761993 | 8.89° C | 49% | 1013.2 hPa | 0 mm | - | 77 W/m² | - |
| 1777761689 | 8.89° C | 50% | 1013.2 hPa | 0 mm | - | 147 W/m² | - |
| 1777761387 | 8.89° C | 50% | 1013.3 hPa | 0 mm | - | 126 W/m² | - |
| 1777761085 | 8.89° C | 50% | 1013.4 hPa | 0 mm | - | 242 W/m² | - |
| 1777760783 | 8.89° C | 48% | 1013.6 hPa | 0 mm | - | 326 W/m² | - |
| 1777760479 | 9.44° C | 49% | 1013.4 hPa | 0 mm | - | 320 W/m² | - |
| 1777760174 | 9.44° C | 49% | 1013.4 hPa | 0 mm | - | 363 W/m² | - |
| 1777759872 | 10° C | 49% | 1013.5 hPa | 0 mm | - | 272 W/m² | - |
| 1777759568 | 10° C | 47% | 1013.5 hPa | 0 mm | - | 283 W/m² | - |
| 1777759259 | 10.56° C | 40% | 1013.5 hPa | 0 mm | - | 305 W/m² | - |
| 1777758956 | 10.56° C | 40% | 1013.4 hPa | 0 mm | - | 291 W/m² | - |
| 1777758653 | 11.11° C | 39% | 1013.3 hPa | 0 mm | - | 346 W/m² | - |
| 1777758349 | 11.11° C | 40% | 1013.4 hPa | 0 mm | - | 269 W/m² | - |
| 1777758047 | 10.56° C | 41% | 1013.5 hPa | 0 mm | - | 322 W/m² | - |
| 1777757744 | 11.11° C | 39% | 1013.7 hPa | 0 mm | - | 265 W/m² | - |
| 1777757442 | 11.11° C | 39% | 1013.7 hPa | 0 mm | - | 309 W/m² | - |
| 1777757140 | 11.11° C | 39% | 1013.9 hPa | 0 mm | - | 462 W/m² | - |
* Rain latest hour (hover to see other rain measurements)
** Current wind speed in m/s (hover to see current wind gust speed)